Time,TemperatureF,DewpointF,PressureIn,WindDirection,WindDirectionDegrees,WindSpeedMPH,WindSpeedGustMPH,Humidity,HourlyPrecipIn,Conditions,Clouds,dailyrainin,SoftwareType,DateUTC
2013-03-20 00:01:00,55.0,51.0,30.12,WSW,240,0.0,-999.0,86,-99.99,,,-99.99,,2013-03-20 07:01:00,
2013-03-20 00:11:00,55.0,51.0,30.12,WSW,240,0.0,-999.0,86,-99.99,,,-99.99,,2013-03-20 07:11:00,
2013-03-20 00:21:00,55.0,51.0,30.12,WSW,240,0.0,-999.0,86,-99.99,,,-99.99,,2013-03-20 07:21:00,
2013-03-20 00:31:00,54.0,50.0,30.11,WSW,240,0.0,-999.0,86,-99.99,,,-99.99,,2013-03-20 07:31:00,
2013-03-20 00:41:00,54.0,50.0,30.11,WSW,240,0.0,-999.0,86,-99.99,,,-99.99,,2013-03-20 07:41:00,
2013-03-20 00:52:00,54.0,50.0,30.11,WSW,240,0.0,-999.0,87,-99.99,,,-99.99,,2013-03-20 07:52:00,
2013-03-20 01:01:00,54.0,50.0,30.10,WSW,240,0.0,-999.0,87,-99.99,,,-99.99,,2013-03-20 08:01:00,
2013-03-20 01:11:00,54.0,50.0,30.10,WSW,240,0.0,-999.0,87,-99.99,,,-99.99,,2013-03-20 08:11:00,
2013-03-20 01:21:00,54.0,50.0,30.10,WSW,240,0.0,-999.0,87,-99.99,,,-99.99,,2013-03-20 08:21:00,
2013-03-20 01:32:00,55.0,51.0,30.09,WSW,240,0.0,-999.0,87,-99.99,,,-99.99,,2013-03-20 08:32:00,
2013-03-20 01:42:00,55.0,51.0,30.09,WSW,240,0.0,-999.0,87,-99.99,,,-99.99,,2013-03-20 08:42:00,
2013-03-20 01:52:00,54.0,50.0,30.10,WSW,240,0.0,-999.0,87,-99.99,,,-99.99,,2013-03-20 08:52:00,
2013-03-20 02:01:00,54.0,50.0,30.10,WSW,240,0.0,-999.0,87,-99.99,,,-99.99,,2013-03-20 09:01:00,
2013-03-20 02:11:00,54.0,50.0,30.10,WSW,240,0.0,-999.0,87,-99.99,,,-99.99,,2013-03-20 09:11:00,
2013-03-20 02:22:00,54.0,50.0,30.09,WSW,240,0.0,-999.0,87,-99.99,,,-99.99,,2013-03-20 09:22:00,
2013-03-20 02:32:00,54.0,50.0,30.10,WSW,240,0.0,-999.0,87,-99.99,,,-99.99,,2013-03-20 09:32:00,
2013-03-20 02:42:00,54.0,50.0,30.10,WSW,240,0.0,-999.0,87,-99.99,,,-99.99,,2013-03-20 09:42:00,
2013-03-20 02:52:00,53.0,50.0,30.09,WSW,240,0.0,-999.0,88,-99.99,,,-99.99,,2013-03-20 09:52:00,
2013-03-20 03:02:00,53.0,50.0,30.09,WSW,240,0.0,-999.0,88,-99.99,,,-99.99,,2013-03-20 10:02:00,
2013-03-20 03:12:00,53.0,50.0,30.09,WSW,240,0.0,-999.0,88,-99.99,,,-99.99,,2013-03-20 10:12:00,
2013-03-20 03:22:00,53.0,50.0,30.09,WSW,240,0.0,-999.0,88,-99.99,,,-99.99,,2013-03-20 10:22:00,
2013-03-20 03:32:00,52.0,49.0,30.09,WSW,240,0.0,-999.0,88,-99.99,,,-99.99,,2013-03-20 10:32:00,
2013-03-20 03:42:00,52.0,49.0,30.09,WSW,240,0.0,-999.0,88,-99.99,,,-99.99,,2013-03-20 10:42:00,
2013-03-20 03:53:00,52.0,49.0,30.08,WSW,240,0.0,-999.0,88,-99.99,,,-99.99,,2013-03-20 10:53:00,
2013-03-20 04:02:00,52.0,49.0,30.07,WSW,240,0.0,-999.0,89,-99.99,,,-99.99,,2013-03-20 11:02:00,
2013-03-20 04:11:00,52.0,49.0,30.07,WSW,240,0.0,-999.0,89,-99.99,,,-99.99,,2013-03-20 11:11:00,
2013-03-20 04:22:00,51.0,49.0,30.08,WSW,240,0.0,-999.0,92,-99.99,,,-99.99,,2013-03-20 11:22:00,
2013-03-20 04:32:00,51.0,48.0,30.07,WSW,240,0.0,-999.0,89,-99.99,,,-99.99,,2013-03-20 11:32:00,
2013-03-20 04:42:00,51.0,48.0,30.07,WSW,240,0.0,-999.0,89,-99.99,,,-99.99,,2013-03-20 11:42:00,
2013-03-20 04:52:00,51.0,48.0,30.06,WSW,240,0.0,-999.0,89,-99.99,,,-99.99,,2013-03-20 11:52:00,
2013-03-20 05:02:00,51.0,48.0,30.07,WSW,240,0.0,-999.0,90,-99.99,,,-99.99,,2013-03-20 12:02:00,
2013-03-20 05:11:00,51.0,48.0,30.07,WSW,240,0.0,-999.0,90,-99.99,,,-99.99,,2013-03-20 12:11:00,
2013-03-20 05:22:00,51.0,48.0,30.07,WSW,240,0.0,-999.0,89,-99.99,,,-99.99,,2013-03-20 12:22:00,
2013-03-20 05:32:00,51.0,48.0,30.07,WSW,240,0.0,-999.0,89,-99.99,,,-99.99,,2013-03-20 12:32:00,
2013-03-20 05:42:00,51.0,48.0,30.07,WSW,240,0.0,-999.0,89,-99.99,,,-99.99,,2013-03-20 12:42:00,
2013-03-20 05:52:00,51.0,48.0,30.07,WSW,240,0.0,-999.0,90,-99.99,,,-99.99,,2013-03-20 12:52:00,
2013-03-20 06:01:00,51.0,48.0,30.07,WSW,240,0.0,-999.0,90,-99.99,,,-99.99,,2013-03-20 13:01:00,
2013-03-20 06:12:00,51.0,48.0,30.07,WSW,240,0.0,-999.0,90,-99.99,,,-99.99,,2013-03-20 13:12:00,
2013-03-20 06:22:00,51.0,48.0,30.07,WSW,240,0.0,-999.0,90,-99.99,,,-99.99,,2013-03-20 13:22:00,
2013-03-20 06:32:00,50.0,47.0,30.08,WSW,240,0.0,-999.0,90,-99.99,,,-99.99,,2013-03-20 13:32:00,
2013-03-20 06:42:00,50.0,47.0,30.08,WSW,240,0.0,-999.0,90,-99.99,,,-99.99,,2013-03-20 13:42:00,
2013-03-20 06:52:00,50.0,47.0,30.09,WSW,240,0.0,-999.0,90,-99.99,,,-99.99,,2013-03-20 13:52:00,
2013-03-20 07:01:00,50.0,47.0,30.09,WSW,240,0.0,-999.0,90,-99.99,,,-99.99,,2013-03-20 14:01:00,
2013-03-20 07:11:00,50.0,47.0,30.09,WSW,240,0.0,-999.0,90,-99.99,,,-99.99,,2013-03-20 14:11:00,
2013-03-20 07:22:00,50.0,47.0,30.09,WSW,240,0.0,-999.0,90,-99.99,,,-99.99,,2013-03-20 14:22:00,
2013-03-20 07:32:00,50.0,47.0,30.09,WSW,240,0.0,-999.0,90,-99.99,,,-99.99,,2013-03-20 14:32:00,
2013-03-20 07:42:00,50.0,47.0,30.09,WSW,240,0.0,-999.0,90,-99.99,,,-99.99,,2013-03-20 14:42:00,
2013-03-20 07:52:00,50.0,47.0,30.09,WSW,240,0.0,-999.0,91,-99.99,,,-99.99,,2013-03-20 14:52:00,
2013-03-20 08:02:00,50.0,47.0,30.10,WSW,240,0.0,-999.0,91,-99.99,,,-99.99,,2013-03-20 15:02:00,
2013-03-20 08:12:00,50.0,47.0,30.10,WSW,240,0.0,-999.0,91,-99.99,,,-99.99,,2013-03-20 15:12:00,
2013-03-20 08:22:00,50.0,47.0,30.10,WSW,240,0.0,-999.0,91,-99.99,,,-99.99,,2013-03-20 15:22:00,
2013-03-20 08:32:00,51.0,48.0,30.11,WSW,240,0.0,-999.0,91,-99.99,,,-99.99,,2013-03-20 15:32:00,
2013-03-20 08:43:00,51.0,48.0,30.11,WSW,240,0.0,-999.0,91,-99.99,,,-99.99,,2013-03-20 15:43:00,
2013-03-20 08:53:00,52.0,49.0,30.11,WSW,240,0.0,-999.0,91,-99.99,,,-99.99,,2013-03-20 15:53:00,
2013-03-20 09:02:00,53.0,50.0,30.11,WSW,240,0.0,-999.0,89,-99.99,,,-99.99,,2013-03-20 16:02:00,
2013-03-20 09:12:00,53.0,50.0,30.11,WSW,240,0.0,-999.0,89,-99.99,,,-99.99,,2013-03-20 16:12:00,
2013-03-20 09:22:00,53.0,50.0,30.11,WSW,240,0.0,-999.0,89,-99.99,,,-99.99,,2013-03-20 16:22:00,
2013-03-20 09:32:00,55.0,52.0,30.11,WSW,240,0.0,-999.0,88,-99.99,,,-99.99,,2013-03-20 16:32:00,
2013-03-20 09:42:00,55.0,52.0,30.11,WSW,240,0.0,-999.0,88,-99.99,,,-99.99,,2013-03-20 16:42:00,
2013-03-20 09:53:00,56.0,52.0,30.11,WSW,240,0.0,-999.0,86,-99.99,,,-99.99,,2013-03-20 16:53:00,
2013-03-20 10:02:00,57.0,53.0,30.11,WSW,240,0.0,-999.0,85,-99.99,,,-99.99,,2013-03-20 17:02:00,
2013-03-20 10:11:00,57.0,53.0,30.11,WSW,240,0.0,-999.0,85,-99.99,,,-99.99,,2013-03-20 17:11:00,
2013-03-20 10:21:00,58.0,53.0,30.11,WSW,240,0.0,-999.0,82,-99.99,,,-99.99,,2013-03-20 17:21:00,
2013-03-20 10:32:00,59.0,52.0,30.11,WSW,240,0.0,-999.0,79,-99.99,,,-99.99,,2013-03-20 17:32:00,
2013-03-20 10:42:00,59.0,52.0,30.11,WSW,240,0.0,-999.0,79,-99.99,,,-99.99,,2013-03-20 17:42:00,
2013-03-20 10:52:00,61.0,53.0,30.11,WSW,240,0.0,-999.0,74,-99.99,,,-99.99,,2013-03-20 17:52:00,
2013-03-20 11:01:00,62.0,52.0,30.11,WSW,240,1.0,-999.0,71,-99.99,,,-99.99,,2013-03-20 18:01:00,
2013-03-20 11:12:00,62.0,52.0,30.11,WSW,240,1.0,-999.0,71,-99.99,,,-99.99,,2013-03-20 18:12:00,
2013-03-20 11:22:00,63.0,53.0,30.12,West,262,2.0,-999.0,71,-99.99,,,-99.99,,2013-03-20 18:22:00,
2013-03-20 11:32:00,63.0,54.0,30.12,West,280,2.0,-999.0,72,-99.99,,,-99.99,,2013-03-20 18:32:00,
2013-03-20 11:42:00,63.0,54.0,30.12,West,280,2.0,-999.0,72,-99.99,,,-99.99,,2013-03-20 18:42:00,
2013-03-20 11:52:00,64.0,54.0,30.11,WNW,285,2.0,-999.0,69,-99.99,,,-99.99,,2013-03-20 18:52:00,
2013-03-20 12:01:00,64.0,54.0,30.11,WNW,285,2.0,-999.0,69,-99.99,,,-99.99,,2013-03-20 19:01:00,
2013-03-20 12:11:00,64.0,54.0,30.11,WNW,285,2.0,-999.0,69,-99.99,,,-99.99,,2013-03-20 19:11:00,
2013-03-20 12:22:00,65.0,54.0,30.10,WNW,302,1.0,-999.0,67,-99.99,,,-99.99,,2013-03-20 19:22:00,
2013-03-20 12:31:00,65.0,53.0,30.10,WSW,253,0.0,-999.0,66,-99.99,,,-99.99,,2013-03-20 19:31:00,
2013-03-20 12:42:00,65.0,53.0,30.10,WSW,253,0.0,-999.0,66,-99.99,,,-99.99,,2013-03-20 19:42:00,
2013-03-20 12:53:00,65.0,53.0,30.10,WSW,253,0.0,-999.0,66,-99.99,,,-99.99,,2013-03-20 19:53:00,
2013-03-20 13:01:00,67.0,54.0,30.09,West,271,0.0,-999.0,62,-99.99,,,-99.99,,2013-03-20 20:01:00,
2013-03-20 13:12:00,67.0,54.0,30.09,West,271,0.0,-999.0,62,-99.99,,,-99.99,,2013-03-20 20:12:00,
2013-03-20 13:22:00,68.0,54.0,30.08,WNW,288,0.0,-999.0,60,-99.99,,,-99.99,,2013-03-20 20:22:00,
2013-03-20 13:32:00,69.0,54.0,30.07,WSW,239,1.0,-999.0,58,-99.99,,,-99.99,,2013-03-20 20:32:00,
2013-03-20 13:42:00,69.0,54.0,30.07,WSW,239,1.0,-999.0,58,-99.99,,,-99.99,,2013-03-20 20:42:00,
2013-03-20 13:52:00,68.0,53.0,30.07,West,279,3.0,-999.0,59,-99.99,,,-99.99,,2013-03-20 20:52:00,
2013-03-20 14:01:00,68.0,53.0,30.07,West,264,2.0,-999.0,59,-99.99,,,-99.99,,2013-03-20 21:01:00,
2013-03-20 14:11:00,68.0,53.0,30.07,West,264,2.0,-999.0,59,-99.99,,,-99.99,,2013-03-20 21:11:00,
2013-03-20 14:22:00,67.0,53.0,30.07,NW,306,3.0,-999.0,61,-99.99,,,-99.99,,2013-03-20 21:22:00,
2013-03-20 14:32:00,66.0,52.0,30.06,SW,221,2.0,-999.0,60,-99.99,,,-99.99,,2013-03-20 21:32:00,
2013-03-20 14:42:00,66.0,52.0,30.06,SW,221,2.0,-999.0,60,-99.99,,,-99.99,,2013-03-20 21:42:00,
2013-03-20 14:52:00,65.0,51.0,30.06,WSW,241,2.0,-999.0,61,-99.99,,,-99.99,,2013-03-20 21:52:00,
2013-03-20 15:02:00,65.0,51.0,30.06,SSW,201,1.0,-999.0,61,-99.99,,,-99.99,,2013-03-20 22:02:00,
2013-03-20 15:12:00,65.0,51.0,30.06,SSW,201,1.0,-999.0,61,-99.99,,,-99.99,,2013-03-20 22:12:00,
2013-03-20 15:22:00,65.0,51.0,30.06,SSW,201,1.0,-999.0,61,-99.99,,,-99.99,,2013-03-20 22:22:00,
2013-03-20 15:32:00,66.0,50.0,30.04,West,273,1.0,-999.0,57,-99.99,,,-99.99,,2013-03-20 22:32:00,
2013-03-20 15:42:00,66.0,50.0,30.04,West,273,1.0,-999.0,57,-99.99,,,-99.99,,2013-03-20 22:42:00,
2013-03-20 15:52:00,68.0,51.0,30.04,West,263,0.0,-999.0,55,-99.99,,,-99.99,,2013-03-20 22:52:00,
2013-03-20 16:02:00,68.0,50.0,30.03,SW,236,1.0,-999.0,53,-99.99,,,-99.99,,2013-03-20 23:02:00,
2013-03-20 16:12:00,68.0,50.0,30.03,SW,236,1.0,-999.0,53,-99.99,,,-99.99,,2013-03-20 23:12:00,
2013-03-20 16:22:00,68.0,50.0,30.03,West,275,0.0,-999.0,52,-99.99,,,-99.99,,2013-03-20 23:22:00,
2013-03-20 16:31:00,68.0,51.0,30.03,West,267,0.0,-999.0,54,-99.99,,,-99.99,,2013-03-20 23:31:00,
2013-03-20 16:42:00,68.0,51.0,30.03,West,267,0.0,-999.0,54,-99.99,,,-99.99,,2013-03-20 23:42:00,
2013-03-20 16:52:00,68.0,52.0,30.02,WSW,249,0.0,-999.0,56,-99.99,,,-99.99,,2013-03-20 23:52:00,
2013-03-20 17:01:00,67.0,52.0,30.02,West,273,1.0,-999.0,58,-99.99,,,-99.99,,2013-03-21 00:01:00,
2013-03-20 17:11:00,67.0,52.0,30.02,West,273,1.0,-999.0,58,-99.99,,,-99.99,,2013-03-21 00:11:00,
2013-03-20 17:22:00,66.0,52.0,30.01,West,264,0.0,-999.0,60,-99.99,,,-99.99,,2013-03-21 00:22:00,
2013-03-20 17:32:00,66.0,52.0,30.02,SW,236,1.0,-999.0,60,-99.99,,,-99.99,,2013-03-21 00:32:00,
2013-03-20 17:41:00,66.0,52.0,30.02,SW,236,1.0,-999.0,60,-99.99,,,-99.99,,2013-03-21 00:41:00,
2013-03-20 17:52:00,66.0,52.0,30.02,WSW,237,0.0,-999.0,60,-99.99,,,-99.99,,2013-03-21 00:52:00,
2013-03-20 18:01:00,66.0,51.0,30.01,WSW,237,0.0,-999.0,58,-99.99,,,-99.99,,2013-03-21 01:01:00,
2013-03-20 18:11:00,66.0,51.0,30.01,WSW,237,0.0,-999.0,58,-99.99,,,-99.99,,2013-03-21 01:11:00,
2013-03-20 18:21:00,65.0,51.0,30.01,WSW,238,0.0,-999.0,61,-99.99,,,-99.99,,2013-03-21 01:21:00,
2013-03-20 18:32:00,64.0,50.0,30.01,WSW,249,1.0,-999.0,61,-99.99,,,-99.99,,2013-03-21 01:32:00,
2013-03-20 18:42:00,64.0,50.0,30.01,WSW,249,1.0,-999.0,61,-99.99,,,-99.99,,2013-03-21 01:42:00,
2013-03-20 18:52:00,63.0,50.0,30.01,WSW,253,0.0,-999.0,62,-99.99,,,-99.99,,2013-03-21 01:52:00,
2013-03-20 19:01:00,62.0,50.0,30.02,West,261,1.0,-999.0,64,-99.99,,,-99.99,,2013-03-21 02:01:00,
2013-03-20 19:12:00,62.0,50.0,30.02,West,261,1.0,-999.0,64,-99.99,,,-99.99,,2013-03-21 02:12:00,
2013-03-20 19:22:00,61.0,50.0,30.01,West,261,0.0,-999.0,66,-99.99,,,-99.99,,2013-03-21 02:22:00,
2013-03-20 19:32:00,60.0,49.0,30.01,West,261,0.0,-999.0,67,-99.99,,,-99.99,,2013-03-21 02:32:00,
2013-03-20 19:41:00,60.0,49.0,30.01,West,261,0.0,-999.0,67,-99.99,,,-99.99,,2013-03-21 02:41:00,
2013-03-20 19:52:00,60.0,49.0,30.01,West,261,0.0,-999.0,67,-99.99,,,-99.99,,2013-03-21 02:52:00,
2013-03-20 20:01:00,60.0,49.0,30.01,West,261,0.0,-999.0,68,-99.99,,,-99.99,,2013-03-21 03:01:00,
2013-03-20 20:11:00,60.0,49.0,30.01,West,261,0.0,-999.0,68,-99.99,,,-99.99,,2013-03-21 03:11:00,
2013-03-20 20:21:00,59.0,49.0,30.01,West,261,0.0,-999.0,70,-99.99,,,-99.99,,2013-03-21 03:21:00,
2013-03-20 20:32:00,59.0,50.0,30.01,West,261,0.0,-999.0,71,-99.99,,,-99.99,,2013-03-21 03:32:00,
2013-03-20 20:43:00,59.0,50.0,30.01,West,261,0.0,-999.0,71,-99.99,,,-99.99,,2013-03-21 03:43:00,
2013-03-20 20:53:00,59.0,50.0,30.01,West,261,0.0,-999.0,73,-99.99,,,-99.99,,2013-03-21 03:53:00,
2013-03-20 21:02:00,58.0,50.0,30.00,West,261,0.0,-999.0,74,-99.99,,,-99.99,,2013-03-21 04:02:00,
2013-03-20 21:12:00,58.0,50.0,30.00,West,261,0.0,-999.0,74,-99.99,,,-99.99,,2013-03-21 04:12:00,
2013-03-20 21:22:00,58.0,50.0,30.00,West,261,0.0,-999.0,74,-99.99,,,-99.99,,2013-03-21 04:22:00,
2013-03-20 21:32:00,58.0,50.0,30.00,West,261,0.0,-999.0,75,-99.99,,,-99.99,,2013-03-21 04:32:00,
2013-03-20 21:43:00,58.0,50.0,30.00,West,261,0.0,-999.0,75,-99.99,,,-99.99,,2013-03-21 04:43:00,
2013-03-20 21:53:00,57.0,49.0,30.01,West,261,0.0,-999.0,75,-99.99,,,-99.99,,2013-03-21 04:53:00,
2013-03-20 22:02:00,57.0,50.0,30.01,West,261,0.0,-999.0,76,-99.99,,,-99.99,,2013-03-21 05:02:00,
2013-03-20 22:12:00,57.0,50.0,30.01,West,261,0.0,-999.0,76,-99.99,,,-99.99,,2013-03-21 05:12:00,
2013-03-20 22:21:00,56.0,49.0,30.00,West,261,0.0,-999.0,77,-99.99,,,-99.99,,2013-03-21 05:21:00,
2013-03-20 22:32:00,55.0,48.0,30.00,West,261,0.0,-999.0,78,-99.99,,,-99.99,,2013-03-21 05:32:00,
2013-03-20 22:43:00,55.0,48.0,30.00,West,261,0.0,-999.0,78,-99.99,,,-99.99,,2013-03-21 05:43:00,
2013-03-20 22:52:00,55.0,49.0,29.99,West,261,0.0,-999.0,79,-99.99,,,-99.99,,2013-03-21 05:52:00,
2013-03-20 23:02:00,55.0,49.0,29.99,West,261,0.0,-999.0,79,-99.99,,,-99.99,,2013-03-21 06:02:00,
2013-03-20 23:11:00,55.0,49.0,29.99,West,261,0.0,-999.0,79,-99.99,,,-99.99,,2013-03-21 06:11:00,
2013-03-20 23:22:00,54.0,48.0,29.98,West,261,0.0,-999.0,80,-99.99,,,-99.99,,2013-03-21 06:22:00,
2013-03-20 23:31:00,54.0,48.0,29.98,West,261,0.0,-999.0,81,-99.99,,,-99.99,,2013-03-21 06:31:00,
2013-03-20 23:42:00,54.0,48.0,29.98,West,261,0.0,-999.0,81,-99.99,,,-99.99,,2013-03-21 06:42:00,
2013-03-20 23:52:00,53.0,48.0,29.98,West,261,0.0,-999.0,82,-99.99,,,-99.99,,2013-03-21 06:52:00,